Powrót do katalogu

STARLINK-32351

AktywnyŁącznośćVLEO
NORAD 61529·PAYLOAD·🇺🇸 United States

Wystrzelony Oct 15, 2024 z Cape Canaveral Space Force Station

Loading…

Następne Przeloty (najbliższe 24 godziny)

TLE

ŚwieżeSource: CelesTrak SupGP

Epoka: Sep 14, 2026, 21:25 UTC

1 61529C 24183W   26257.89284722 -.00010054  00000+0 -29710-3 0  2575
2 61529  53.1583 339.6390 0001262  80.1746  26.3311 15.34391506    14

Śledź STARLINK-32351 w czasie rzeczywistym z AllMySat

Download on the App Store